TimeCDT,TemperatureF,Dew PointF,Humidity,Sea Level PressureIn,VisibilityMPH,Wind Direction,Wind SpeedMPH,Gust SpeedMPH,PrecipitationIn,Events,Conditions,WindDirDegrees,DateUTC
12:53 AM,79.0,71.1,77,30.05,10.0,Calm,Calm,-,N/A,,Clear,0,2013-07-09 05:53:00
1:53 AM,75.9,71.1,85,30.05,10.0,Calm,Calm,-,N/A,,Clear,0,2013-07-09 06:53:00
2:53 AM,75.9,71.1,85,30.05,10.0,Calm,Calm,-,N/A,,Clear,0,2013-07-09 07:53:00
3:53 AM,75.9,72.0,87,30.04,10.0,Calm,Calm,-,N/A,,Clear,0,2013-07-09 08:53:00
4:53 AM,75.0,71.1,87,30.06,9.0,Calm,Calm,-,N/A,,Clear,0,2013-07-09 09:53:00
5:53 AM,73.9,71.1,91,30.06,7.0,Calm,Calm,-,N/A,,Clear,0,2013-07-09 10:53:00
6:53 AM,75.9,72.0,87,30.06,9.0,Calm,Calm,-,N/A,,Clear,0,2013-07-09 11:53:00
7:53 AM,80.1,73.9,81,30.07,10.0,SSW,6.9,-,N/A,,Clear,200,2013-07-09 12:53:00
8:53 AM,82.9,73.9,74,30.07,10.0,SSW,8.1,-,N/A,,Clear,210,2013-07-09 13:53:00
9:53 AM,86.0,75.0,70,30.06,10.0,SW,8.1,-,N/A,,Clear,230,2013-07-09 14:53:00
10:53 AM,89.1,73.9,61,30.06,10.0,SW,6.9,-,N/A,,Clear,220,2013-07-09 15:53:00
11:53 AM,91.0,73.9,57,30.05,10.0,SSW,9.2,-,N/A,,Clear,200,2013-07-09 16:53:00
12:53 PM,93.0,73.0,52,30.04,10.0,SSW,10.4,16.1,N/A,,Clear,200,2013-07-09 17:53:00
1:53 PM,93.9,73.0,51,30.02,10.0,SSW,10.4,-,N/A,,Clear,200,2013-07-09 18:53:00
2:53 PM,95.0,73.0,49,30.01,10.0,SSW,11.5,-,N/A,,Clear,200,2013-07-09 19:53:00
3:53 PM,95.0,73.0,49,29.99,10.0,SSW,11.5,-,N/A,,Clear,210,2013-07-09 20:53:00
4:53 PM,93.0,72.0,50,29.97,10.0,SSW,12.7,-,N/A,,Clear,210,2013-07-09 21:53:00
5:53 PM,93.0,72.0,50,29.95,10.0,SSW,11.5,-,N/A,,Clear,200,2013-07-09 22:53:00
6:53 PM,91.9,73.0,54,29.94,10.0,SSW,9.2,-,N/A,,Clear,200,2013-07-09 23:53:00
7:53 PM,89.1,73.9,61,29.94,10.0,SSW,5.8,-,N/A,,Clear,200,2013-07-10 00:53:00
8:53 PM,87.1,73.0,63,29.95,10.0,South,6.9,-,N/A,,Clear,180,2013-07-10 01:53:00
9:53 PM,87.1,73.9,65,29.96,10.0,South,6.9,-,N/A,,Clear,170,2013-07-10 02:53:00
10:53 PM,86.0,73.0,65,29.97,10.0,South,9.2,-,N/A,,Clear,180,2013-07-10 03:53:00
11:53 PM,84.9,73.0,67,29.97,10.0,South,8.1,-,N/A,,Clear,190,2013-07-10 04:53:00